Showing default

XM-4, 29520

Orbit data source: Space-Track

XM-4, 29520 is a payload satellite owned by XM Radio (US) in GEO that was launched on Mon, 30 Oct 2006 UTC via a ZENIT-3SL launch vehicle from the Sea Launch (SEAL). Payload-class satellites include a variety of spacecraft equipped with specific instruments for various scientific and technological missions. These include communications satellites like Starlink; space stations such as the ISS; scientific satellites like the Hubble; Earth observation satellites from companies like Planet Labs, Umbra, and HawkEye 360; GPS; miniature CubeSats for education and research; and military/defense satellites.

Not visible in the next 10 days
Identifier
29520, 2006-049A
Orbit
GEO
Country
Flag of USUS
Related business
Manufacturer
Boeing/ES
Mission
Non-operational Commercial Communications
Bus & Motor
BSS-702HP, R-4D-11-300
Mass
5,193 kg wet, ~2,700 kg dry
Launch date (UTC)
2006-10-30 (20 years ago)
Launch vehicle
ZENIT-3SL
Launch site
Sea Launch (SEAL)
Object type
Payload
Rocket body
Debris
Shape & HBR
Box + 2 Pan, 20.2 m
Radar Cross Section
61.334 m², Large (>1 m²)

Expand to show TLE details & history
Last TLE update: 6 hours ago

TLE from 6 hours ago
0 XM-4
1 29520U 06049A   26126.21649253 -.00000209  00000-0  00000-0 0  9998
2 29520   2.7439  81.5060 0009604 312.9424  36.4613  0.98815955 50928
Epoch: 2026-05-06T05:11Z
TLE epoch observation values (Epoch: 2026-05-06T05:11:44.954Z)
Latitude
-0.48947°
Longitude
128.96394°
Altitude
36,166.216 km
Speed
3.062 km/s
True Right ascension
04h 43m 55s
True Declination
0° 29' 20"
Sunlit
Object was in daylight at epoch
Visualization orbit readout
Latitude
Unknown
Longitude
Unknown
Altitude
Unknown
Speed
Unknown
Apparent Right ascension
Unknown
Apparent Declination
Unknown
Sunlit
N/A
Visualization observer readout
Local Sidereal Time
19:34:32
Azimuth
Unknown
Elevation
Unknown
Doppler factor
Unknown
Orbital elements
Apogee altitude
36,241.669 km
Perigee altitude
36,159.884 km
Semi-major axis
42,578.913 km
Eccentricity
0.00096
Inclination
2.7439°
RAAN
81.506°
Arg. of periapsis
312.9424°
True anomaly
36.52677°
Mean anomaly
36.4613°
Eccentric anomaly
36.49403°
Mean motion
0.24703 °/min
Orbital period
1,457.31 mins
BSTAR
0
Loading maneuver chart data...
Computing Atmospheric mass density...
Loading historical data...
Loading historical data...
Loading historical data...
Loading historical data...
Loading historical data...
Loading historical data...
Loading historical data...
Other satellites on launch #49 in the year 2006 (2006-10-30 UTC)

Documentation

Showing up to 5 results
|